Location: Newark
(47.5833°N, 8.1500°E)
Time: 08:41:11
(UTC+00:00)

Vanguard 1 - Pass Details

Date: 03 November 2020
Orbit: 650 x 3833 km, 34.2° (Epoch: 29 November)

Event Time Altitude Azimuth Distance (km) Brightness Sun altitude
Rises 11:19:04 0° 238° (WSW) 6,866 14.8 27.1°
Reaches altitude 10° 11:23:19 10° 234° (SW) 6,166 14.8 27.1°
Maximum altitude 11:43:33 53° 165° (SSE) 4,368 14.5 26.7°
Drops below altitude 10° 12:04:25 10° 98° (E) 6,352 14.2 26.0°
Sets 12:08:51 0° 94° (E) 7,077 14.3 25.8°
